Location: Newark
(41.9000°N, 12.4833°E)
Time: 19:08:51
(UTC+00:00)

EO-79 - Visible Passes

Search period start: 19 May 2019 00:00
Search period end: 29 May 2019 00:00
Orbit: 592 x 610 km, 97.9° (Epoch: 18 May)

Date Brightness Start Highest point End Pass type
(mag) Time Alt. Az. Time Alt. Az. Time Alt. Az.
19 May ? 00:15:42 10° N 00:18:57 36° NW 00:18:57 36° NW visible
19 May ? 22:51:56 10° NE 22:53:50 19° ENE 22:53:50 19° ENE visible
20 May ? 00:27:22 10° N 00:30:36 29° WNW 00:30:36 29° WNW visible
20 May ? 23:03:07 10° NE 23:05:29 25° ENE 23:05:29 25° ENE visible
21 May ? 00:39:06 10° NNW 00:42:16 23° WNW 00:42:16 23° WNW visible
21 May ? 23:14:24 10° NNE 23:17:08 32° ENE 23:17:08 32° ENE visible
22 May ? 00:50:58 10° NNW 00:53:46 18° WNW 00:53:55 18° WNW visible
22 May ? 23:25:44 10° NNE 23:28:47 42° NE 23:28:47 42° NE visible
23 May ? 01:03:01 10° NNW 01:05:07 14° WNW 01:05:34 13° WNW visible
23 May ? 23:37:09 10° NNE 23:40:26 53° NNE 23:40:26 53° NNE visible
24 May ? 01:15:43 10° NW 01:16:27 10° WNW 01:17:10 10° WNW visible
24 May ? 23:48:37 10° N 23:52:04 59° N 23:52:04 59° N visible
25 May ? 22:26:43 10° ENE 22:26:56 10° ENE 22:26:56 10° ENE visible
26 May ? 00:00:08 10° N 00:03:43 53° NW 00:03:43 53° NW visible
26 May ? 22:37:12 10° NE 22:38:35 14° ENE 22:38:35 14° ENE visible
27 May ? 00:11:42 10° N 00:15:21 43° WNW 00:15:21 43° WNW visible
27 May ? 22:48:09 10° NE 22:50:13 19° ENE 22:50:13 19° ENE visible
28 May ? 00:23:20 10° N 00:27:00 33° WNW 00:27:00 33° WNW visible
28 May ? 22:59:15 10° NE 23:01:51 24° ENE 23:01:51 24° ENE visible
